User: anonymous   Login
Location: Famechon
(49.7599°N, 2.0615°E)
Time: 10:23:06
(UTC+00:00)
Language:

CZ-4C R/B - Orbit

View from above orbital plane
View from above orbital plane
View from above satellite
View from above satellite

Ground track
Ground track

The orbit data is extracted from the following two-line orbital elements,

1 39211U 13037D   23150.77773649  .00004989  00000-0  25804-3 0  9993
2 39211  98.0726 343.9942 0110791 169.2448 191.1188 15.11521698541409
Epoch (UTC): 30 May 2023 18:39:56
Eccentricity: 0.0110791
inclination: 98.0726°
perigee height: 455 km
apogee height: 608 km
right ascension of ascending node: 343.9942°
argument of perigee: 169.2448°
revolutions per day: 15.11521698
mean anomaly at epoch: 191.1188°
orbit number at epoch: 54140

The dashed part of the orbit path shows where the satellite is in the earth's shadow,  

DLR